Regional Weather Roundup
Issued by NWS Jackson, KY

Home | Current Version | Previous Version | Graphics & Text | Print | Product List | Glossary On
Versions: 1 2 3 4 5 6 7 8 9 10 11 12 13 14 15 16 17 18 19 20 21 22 23 24 25 26 27
000
ASUS43 KJKL 301510
RWRJKL

EAST KENTUCKY HOURLY WEATHER ROUNDUP
NATIONAL WEATHER SERVICE JACKSON KY
1100 AM EDT FRI SEP 30 2016

NOTE: "FAIR" INDICATES FEW OR NO CLOUDS BELOW 12,000 FEET WITH
NO SIGNIFICANT WEATHER AND/OR OBSTRUCTIONS TO VISIBILITY.

* THESE REPORTS ARE NOT UNDER NWS QUALITY CONTROL AND MAY NOT
  REPORT WEATHER SUCH AS PRECIPITATION AND FOG.

KYZ079-080-083-085-087-088-110-112-115-119-120-301600
...EASTERN KENTUCKY...

CITY           SKY/WX    TMP DP  RH WIND       PRES   REMARKS
JACKSON        CLOUDY    53  52  96 VRB5      30.06R FOG
LONDON           N/A     51  49  92 W5        30.07S
SOMERSET*      CLOUDY    54  52  94 SW3       30.08S
MONTICELLO*    CLOUDY    55  51  86 W9        30.08F
WILLIAMSBURG*  CLOUDY    50  50 100 CALM      30.08S
MIDDLESBORO*   SUNNY     58  50  74 CALM      30.07S
HARLAN APT*    CLOUDY    54  48  82 CALM      30.07R
PIKE CO APT*   CLOUDY    55  55 100 CALM      30.05R FOG
BIG SANDY APT* CLOUDY    56  56 100 CALM      30.05R FOG
MOREHEAD APT*  FOG       55  54  94 SW3       30.07R VSB 3/4
ASHLAND*       CLOUDY    61  57  88 W6        30.02R
$$

KYZ035-036-041-042-044-050-067-078-099-301600
...CENTRAL KENTUCKY...

CITY           SKY/WX    TMP DP  RH WIND       PRES   REMARKS
MT STERLING*   CLOUDY    54  54 100 W5        30.07S FOG
FLEMING/MASON* CLOUDY    56  55  95 CALM      30.06R
DANVILLE*      CLOUDY    52  52 100 SW7       30.07S
LEXINGTON      CLOUDY    55  53  93 SW5       30.06R FOG
FRANKFORT      CLOUDY    59  52  77 S5        30.04R
LOUISVILLE     CLOUDY    58  54  86 S3        30.05R
LEBANON*       CLOUDY    55  55 100 CALM      30.06S FOG
GLASGOW*       LGT RAIN  52  52 100 CALM      30.06R
BOWLING GREEN  CLOUDY    55  54  96 CALM      30.06R FOG
$$

KYZ091>093-OHZ055-061-077-WVZ005-015-034-035-042-301600
...SOUTHERN OHIO/WEST VIRGINIA...

CITY           SKY/WX    TMP DP  RH WIND       PRES   REMARKS
COVINGTON      CLOUDY    61  57  87 E3        30.04R
COLUMBUS       CLOUDY    62  61  96 S5        30.06R THUNDER
DAYTON         CLOUDY    62  60  93 E9        30.05R
WILMINGTON     CLOUDY    58  58 100 W3        30.03S FOG
HUNTINGTON     CLOUDY    59  57  93 SW3       30.03R FOG
CHARLESTON     CLOUDY    64  59  83 CALM      30.02S
PINEVILLE*     CLOUDY    61  56  85 MISG      30.08R
BECKLEY        CLOUDY    65  60  84 SE10      30.06R
BLUEFIELD      CLOUDY    63  57  81 VRB3      30.05F
LOGAN CO APT*  FOG       57  57 100 CALM      30.03S VSB<1/4
$$

VAZ002-007-008-TNZ017-027-036-066-071-301600
...SOUTHWEST VIRGINIA/EAST TENNESSEE...

CITY           SKY/WX    TMP DP  RH WIND       PRES   REMARKS
WISE*          CLOUDY    55  54  94 CALM      30.07S
JONESVILLE*    CLOUDY    57  50  77 CALM      30.09R
ABINGDON*      CLOUDY    58  57  99 W7        30.05S
BRISTOL        CLOUDY    59  53  80 W6        30.05R
MORRISTOWN*    CLOUDY    63  52  67 VRB7      30.04S
SEVIERVILLE*   SUNNY     63  48  59 NW5       30.05S
KNOXVILLE      MOSUNNY   59  51  75 S6        30.06R
OAK RIDGE      SUNNY     60  47  61 CALM      30.08R
CROSSVILLE     MOSUNNY   56  49  77 W7        30.09R
NASHVILLE      CLOUDY    60  54  80 NW7       30.08R
$$

...KEY TO REMARKS...
VSB - VISIBILITY IN MILES
WCI - WIND CHILL INDEX
HX  - HEAT INDEX

$$




USA.gov is the U.S. government's official web portal to all federal, state and local government web resources and services.